Home   Weather   Corpus Christi   Past weeks
Flag for USA

Past Weather in Corpus Christi, Texas, USA — Yesterday and Last 2 Weeks

Now
65 °F

Overcast.


Feels Like: 65 °F
Forecast: 74 / 64 °F
Wind: 15 mph from Northeast

Location: Corpus Christi International Airport

Current Time: Mar 26, 2019 at 7:39:18 am

Latest Report: Mar 26, 2019 at 6:51 am


Visibility: 10 mi

Pressure: 30.17 "Hg

Humidity: 66%

Dew Point: 53 °F

Location of Corpus ChristiLocation

Past Weather in Corpus Christi — Graph

°F

Corpus Christi Temperature Yesterday

Maximum temperature yesterday: 77 °F (at 5:51 pm)
Minimum temperature yesterday: 64 °F (at 11:59 pm)
Average temperature yesterday: 72 °F

High & Low Weather Summary for the Past Weeks

 TemperatureHumidityPressure
High88 °F (Mar 13, 2:51 pm)100% (Mar 26, 12:51 am)30.43 "Hg (Mar 26, 12:51 am)
Low49 °F (Mar 21, 8:04 am)25% (Mar 14, 1:51 pm)29.59 "Hg (Mar 13, 4:51 pm)
Average67 °F70%30.10 "Hg
* Reported Mar 11 6:20 am — Mar 26 6:25 am, Corpus Christi. Weather by CustomWeather, © 2019

Note: Actual official high and low records may vary slightly from our data, if they occured in-between our weather recording intervals... More about our weather records

Advertising

Corpus Christi Weather History for the Previous 24 Hours

Scroll right to see more
 ConditionsComfort  
Time TempWeatherWind HumidityBarometerVisibility
6:25 am
Tue, Mar 26
66 °FOvercast.10 mph68%30.17 "Hg10 mi
5:51 am68 °FOvercast.17 mph82%30.15 "Hg10 mi
4:51 am70 °FFog.3 mph93%30.14 "Hg6 mi
3:51 am69 °FFog.3 mph93%30.14 "Hg5 mi
3:32 am69 °FFog.3 mph96%30.15 "Hg4 mi
2:51 am68 °FFog.6 mph96%30.15 "Hg4 mi
2:12 am67 °FFog.6 mph97%30.16 "Hg3 mi
1:51 am66 °FFog.3 mph96%30.15 "Hg0 mi
12:51 am64 °FFog.5 mph100%30.14 "Hg0 mi
12:19 am64 °FFog.5 mph97%30.15 "Hg1 mi
12:07 am65 °FFog.6 mph94%30.15 "Hg2 mi
11:59 pm
Mon, Mar 25
64 °FPassing clouds.6 mph97%30.14 "Hg7 mi
10:51 pm68 °FPassing clouds.5 mph90%30.13 "Hg9 mi
9:51 pm71 °FPassing clouds.8 mph87%30.11 "Hg9 mi
8:51 pm73 °FOvercast.7 mph81%30.09 "Hg9 mi
7:51 pm74 °FPassing clouds.8 mph79%30.07 "Hg9 mi
6:51 pm77 °FPartly sunny.8 mph71%30.06 "Hg9 mi
5:51 pm77 °FPartly sunny.7 mph74%30.06 "Hg10 mi
4:51 pm76 °FMostly cloudy.8 mph74%30.06 "Hg9 mi
3:51 pm75 °FMostly cloudy.8 mph76%30.06 "Hg8 mi
3:14 pm75 °FMostly cloudy.6 mph79%30.08 "Hg8 mi
2:51 pm75 °FMore clouds than sun.9 mph79%30.08 "Hg7 mi
2:06 pm75 °FMore clouds than sun.10 mph79%30.09 "Hg8 mi
12:51 pm75 °FMostly cloudy.8 mph79%30.10 "Hg8 mi
11:51 am76 °FMostly cloudy.6 mph72%30.10 "Hg8 mi
10:51 am76 °FMore clouds than sun.9 mph74%30.09 "Hg10 mi
9:51 am74 °FMostly cloudy.7 mph82%30.08 "Hg9 mi
8:51 am72 °FMore clouds than sun.3 mph87%30.06 "Hg7 mi
8:18 am71 °FFog.3 mph90%30.06 "Hg5 mi
8:06 am71 °FFog.3 mph90%30.05 "Hg5 mi
7:51 am70 °FFog.3 mph93%30.04 "Hg4 mi
Weather by CustomWeather, © 2019

See weather overview